STARLINK-30271, 57669

Orbit data source: Space-Track

STARLINK-30271, 57669 is a payload satellite owned by SpaceX/Seattle (US) in LEO that was launched on Tue, 22 Aug 2023 UTC via an FALCON 9 launch vehicle from the Air Force Western Test Range (AFWTR). Payload-class satellites include a variety of spacecraft equipped with specific instruments for various scientific and technological missions. These include communications satellites like Starlink; space stations such as the ISS; scientific satellites like the Hubble; Earth observation satellites from companies like Planet Labs, Umbra, and HawkEye 360; GPS; miniature CubeSats for education and research; and military/defense satellites.

Loading next visibility...
Identifier
57669, 2023-124G
Orbit
LEO
Country
Flag of USUS
Related business
Manufacturer
SpaceX/Seattle
Mission
Operational Commercial Communications
Bus & Motor
STARLINK V2M, Unknown motor
Mass
730 kg wet, ~700 kg dry
Launch date (UTC)
2023-08-22 (3 years ago)
Launch vehicle
FALCON 9
Launch site
Air Force Western Test Range (AFWTR)
Object type
Payload
Rocket body
Debris
Shape & HBR
Box + 2 Pan, 17.7 m
Radar Cross Section
33.884 m², Large (>1 m²)

Expand to show TLE details & history
Last TLE update: 2 days ago

TLE from 2 days ago
0 STARLINK-30271
1 57669U 23124G   26170.94072938  .00000407  00000-0  24890-4 0  9991
2 57669  53.1616  91.5134 0001346  92.7372 267.3783 15.31710117159226
Epoch: 2026-06-19T22:34Z
TLE epoch observation values (Epoch: 2026-06-19T22:34:39.018Z)
Latitude
-0.00006°
Longitude
-155.31171°
Altitude
471.653 km
Speed
7.631 km/s
True Right ascension
06h 06m 03s
True Declination
0° 00' 00"
Sunlit
Object was in daylight at epoch
Visualization orbit readout
Latitude
Unknown
Longitude
Unknown
Altitude
Unknown
Speed
Unknown
Apparent Right ascension
Unknown
Apparent Declination
Unknown
Sunlit
N/A
Visualization observer readout
Local Sidereal Time
21:30:12
Azimuth
Unknown
Elevation
Unknown
Doppler factor
Unknown
Orbital elements
Apogee altitude
471.888 km
Perigee altitude
470.044 km
Semi-major axis
6,849.103 km
Eccentricity
0.00013
Inclination
53.1616°
RAAN
91.5134°
Arg. of periapsis
92.7372°
True anomaly
267.36289°
Mean anomaly
267.3783°
Eccentric anomaly
267.3706°
Mean motion
3.82906 °/min
Orbital period
94.02 mins
BSTAR
0.00002489
Loading maneuver chart data...
Computing Atmospheric mass density...
Loading historical data...
Loading historical data...
Loading historical data...
Loading historical data...
Loading historical data...
Loading historical data...
Loading historical data...

Documentation

Showing up to 5 results
|